| time (UTC) | temp F | wind direction | speed knots | gust knots | rain 1hr in | rain 24hr in | rain mn in | humidity % | barometer mb |
| 20260831163057 | 64 | 65 | 0.9 | 4.3 | 0.00 | 0.08 | 0.00 | 73 | 1010.4 |
| 20260831161534 | 63 | 37 | 0.0 | 5.2 | 0.00 | 0.08 | 0.00 | 75 | 1010.4 |
| 20260831160036 | 62 | 26 | 0.9 | 5.2 | 0.00 | 0.08 | 0.00 | 76 | 1010.6 |
| 20260831154516 | 61 | 40 | 0.9 | 5.2 | 0.00 | 0.08 | 0.00 | 78 | 1010.6 |
| 20260831153016 | 60 | 33 | 0.0 | 4.3 | 0.00 | 0.08 | 0.00 | 81 | 1010.6 |
| 20260831151614 | 59 | 18 | 0.0 | 4.3 | 0.00 | 0.08 | 0.00 | 83 | 1010.7 |
| 20260831150106 | 58 | 15 | 0.0 | 0.0 | 0.00 | 0.08 | 0.00 | 84 | 1010.9 |
| 20260831144555 | 57 | 15 | 0.0 | 0.0 | 0.00 | 0.08 | 0.00 | 84 | 1010.8 |
| 20260831143037 | 57 | 15 | 0.0 | 0.9 | 0.00 | 0.08 | 0.00 | 84 | 1010.9 |
| 20260831141537 | 57 | 15 | 0.0 | 0.0 | 0.00 | 0.08 | 0.00 | 83 | 1010.9 |
| 20260831140018 | 57 | 15 | 0.0 | 7.0 | 0.00 | 0.08 | 0.00 | 84 | 1010.9 |
| 20260831134520 | 57 | 19 | 0.0 | 2.6 | 0.00 | 0.08 | 0.00 | 83 | 1010.9 |
| 20260831133058 | 58 | 19 | 0.0 | 0.0 | 0.00 | 0.08 | 0.00 | 82 | 1010.9 |
| 20260831131558 | 58 | 42 | 0.0 | 4.3 | 0.00 | 0.08 | 0.00 | 82 | 1011.1 |
| 20260831130040 | 58 | 39 | 0.9 | 7.0 | 0.00 | 0.08 | 0.00 | 82 | 1011.1 |
| 20260831124552 | 58 | 37 | 0.0 | 3.5 | 0.00 | 0.08 | 0.00 | 81 | 1011.1 |
| 20260831123018 | 58 | 351 | 0.0 | 0.0 | 0.00 | 0.08 | 0.00 | 80 | 1011.2 |
| 20260831121516 | 58 | 351 | 0.0 | 0.0 | 0.00 | 0.08 | 0.00 | 80 | 1011.2 |
| 20260831120056 | 59 | 351 | 0.0 | 0.0 | 0.00 | 0.08 | 0.00 | 79 | 1011.4 |
| 20260831114556 | 59 | 348 | 0.0 | 5.2 | 0.00 | 0.08 | 0.00 | 78 | 1011.5 |
| 20260831113037 | 59 | 12 | 0.0 | 3.5 | 0.00 | 0.08 | 0.00 | 78 | 1011.5 |
| 20260831111536 | 59 | 18 | 0.0 | 3.5 | 0.00 | 0.08 | 0.00 | 78 | 1011.6 |
| 20260831110020 | 59 | 331 | 0.0 | 5.2 | 0.00 | 0.08 | 0.00 | 78 | 1011.7 |
| 20260831104526 | 59 | 355 | 0.0 | 0.0 | 0.00 | 0.08 | 0.00 | 77 | 1011.6 |
| 20260831103105 | 60 | 355 | 0.0 | 0.0 | 0.00 | 0.08 | 0.00 | 76 | 1011.8 |
| 20260831101558 | 60 | 344 | 0.0 | 0.0 | 0.00 | 0.08 | 0.00 | 76 | 1011.9 |
| 20260831100042 | 60 | 342 | 0.0 | 0.0 | 0.00 | 0.08 | 0.00 | 76 | 1012.1 |
| 20260831094533 | 61 | 338 | 0.0 | 0.0 | 0.00 | 0.08 | 0.00 | 76 | 1012.4 |
| 20260831093019 | 61 | 351 | 0.0 | 3.5 | 0.00 | 0.08 | 0.00 | 75 | 1012.5 |
| 20260831091513 | 61 | 347 | 0.0 | 6.1 | 0.00 | 0.08 | 0.00 | 75 | 1012.6 |
| 20260831090101 | 61 | 30 | 0.0 | 2.6 | 0.00 | 0.08 | 0.00 | 75 | 1012.6 |
| 20260831084553 | 62 | 36 | 0.0 | 5.2 | 0.00 | 0.08 | 0.00 | 75 | 1012.7 |
| 20260831083043 | 62 | 39 | 0.0 | 5.2 | 0.00 | 0.08 | 0.00 | 75 | 1012.8 |
| 20260831081535 | 62 | 35 | 0.0 | 2.6 | 0.00 | 0.08 | 0.00 | 75 | 1013.0 |
| 20260831080014 | 62 | 42 | 0.0 | 4.3 | 0.00 | 0.08 | 0.00 | 74 | 1013.1 |
| 20260831074512 | 63 | 40 | 0.0 | 6.1 | 0.00 | 0.08 | 0.00 | 74 | 1013.2 |
| 20260831073058 | 63 | 40 | 0.0 | 8.7 | 0.00 | 0.08 | 0.00 | 74 | 1013.3 |
| 20260831071552 | 63 | 32 | 0.0 | 5.2 | 0.00 | 0.08 | 0.00 | 74 | 1013.4 |
| 20260831070039 | 63 | 28 | 0.0 | 4.3 | 0.00 | 0.08 | 0.00 | 74 | 1013.5 |
| 20260831064536 | 63 | 13 | 0.9 | 2.6 | 0.00 | 0.08 | 0.00 | 74 | 1013.7 |
| 20260831063013 | 63 | 355 | 0.0 | 7.0 | 0.00 | 0.08 | 0.00 | 74 | 1013.8 |
| 20260831061512 | 63 | 351 | 0.9 | 4.3 | 0.00 | 0.08 | 0.00 | 74 | 1013.9 |
| 20260831060058 | 62 | 18 | 0.9 | 6.1 | 0.00 | 0.08 | 0.00 | 76 | 1014.0 |
| 20260831054557 | 61 | 30 | 0.0 | 0.0 | 0.00 | 0.08 | 0.00 | 75 | 1014.2 |
| 20260831053053 | 62 | 30 | 0.0 | 0.0 | 0.00 | 0.08 | 0.00 | 74 | 1014.4 |
| 20260831051550 | 63 | 30 | 0.0 | 0.0 | 0.00 | 0.08 | 0.00 | 72 | 1014.6 |
| 20260831044600 | 64 | 30 | 0.0 | 0.0 | 0.00 | 0.08 | 0.00 | 70 | 1014.8 |
| 20260831043043 | 64 | 30 | 0.0 | 0.0 | 0.00 | 0.08 | 0.00 | 69 | 1014.8 |
| 20260831041542 | 64 | 30 | 0.0 | 0.0 | 0.00 | 0.08 | 0.00 | 69 | 1014.9 |
| 20260831040026 | 65 | 32 | 0.0 | 0.0 | 0.00 | 0.08 | 0.00 | 67 | 1015.0 |
| 20260831034521 | 65 | 32 | 0.0 | 0.0 | 0.00 | 0.08 | 0.00 | 66 | 1014.9 |
| 20260831033003 | 66 | 36 | 0.0 | 0.0 | 0.00 | 0.08 | 0.00 | 65 | 1014.9 |
| 20260831031602 | 67 | 36 | 0.0 | 0.0 | 0.00 | 0.08 | 0.00 | 63 | 1014.9 |
| 20260831030039 | 67 | 44 | 0.0 | 0.0 | 0.00 | 0.08 | 0.00 | 62 | 1014.9 |
| 20260831024559 | 68 | 5 | 0.0 | 0.0 | 0.00 | 0.10 | 0.00 | 60 | 1015.0 |
| 20260831023016 | 69 | 12 | 0.0 | 0.0 | 0.00 | 0.10 | 0.00 | 59 | 1015.1 |
| 20260831021512 | 70 | 21 | 1.7 | 7.8 | 0.00 | 0.10 | 0.00 | 57 | 1015.2 |
| 20260831020106 | 72 | 344 | 1.7 | 7.8 | 0.00 | 0.10 | 0.00 | 55 | 1015.3 |
| 20260831014602 | 72 | 47 | 2.6 | 11.3 | 0.00 | 0.14 | 0.10 | 54 | 1015.3 |
| 20260831013032 | 73 | 22 | 2.6 | 9.6 | 0.00 | 0.14 | 0.10 | 52 | 1015.5 |
| 20260831011531 | 73 | 31 | 2.6 | 9.6 | 0.00 | 0.14 | 0.10 | 51 | 1015.6 |
| 20260831010027 | 74 | 24 | 3.5 | 9.6 | 0.01 | 0.14 | 0.10 | 50 | 1015.7 |
| 20260831004511 | 75 | 45 | 3.5 | 11.3 | 0.02 | 0.21 | 0.10 | 49 | 1016.0 |
| 20260831003053 | 75 | 67 | 1.7 | 13.0 | 0.04 | 0.21 | 0.10 | 50 | 1016.0 |
| 20260831001556 | 74 | 50 | 3.5 | 10.4 | 0.04 | 0.21 | 0.10 | 51 | 1016.1 |
| 20260831000039 | 74 | 59 | 3.5 | 11.3 | 0.03 | 0.20 | 0.09 | 50 | 1016.1 |
| 20260830234603 | 75 | 68 | 2.6 | 10.4 | 0.02 | 0.21 | 0.08 | 50 | 1016.2 |
| 20260830233037 | 75 | 17 | 4.3 | 11.3 | 0.00 | 0.19 | 0.06 | 50 | 1016.4 |
| 20260830231536 | 76 | 30 | 4.3 | 9.6 | 0.00 | 0.19 | 0.06 | 50 | 1016.5 |
| 20260830230037 | 75 | 55 | 4.3 | 10.4 | 0.04 | 0.19 | 0.06 | 50 | 1016.7 |
| 20260830224537 | 75 | 36 | 1.7 | 10.4 | 0.04 | 0.19 | 0.06 | 51 | 1016.9 |
| 20260830223029 | 75 | 31 | 3.5 | 10.4 | 0.04 | 0.19 | 0.06 | 50 | 1017.2 |
| 20260830221528 | 75 | 32 | 1.7 | 10.4 | 0.04 | 0.19 | 0.06 | 50 | 1017.4 |
| 20260830220023 | 75 | 51 | 1.7 | 8.7 | 0.00 | 0.15 | 0.02 | 50 | 1017.7 |
| 20260830214505 | 74 | 92 | 1.7 | 11.3 | 0.00 | 0.15 | 0.02 | 52 | 1017.8 |
| 20260830213044 | 73 | 44 | 2.6 | 7.8 | 0.00 | 0.15 | 0.02 | 53 | 1018.1 |
| 20260830211543 | 73 | 43 | 2.6 | 8.7 | 0.00 | 0.15 | 0.02 | 54 | 1018.3 |
| 20260830210024 | 72 | 43 | 2.6 | 10.4 | 0.00 | 0.15 | 0.02 | 53 | 1018.4 |
| 20260830204521 | 71 | 64 | 0.9 | 7.0 | 0.00 | 0.17 | 0.02 | 55 | 1018.5 |
| 20260830203100 | 70 | 164 | 0.9 | 7.0 | 0.00 | 0.17 | 0.02 | 57 | 1018.6 |
| 20260830201613 | 70 | 44 | 3.5 | 8.7 | 0.00 | 0.17 | 0.02 | 57 | 1018.9 |
| 20260830200043 | 68 | 43 | 0.9 | 7.0 | 0.00 | 0.17 | 0.02 | 59 | 1019.0 |
| 20260830194541 | 68 | 23 | 0.0 | 7.0 | 0.00 | 0.17 | 0.02 | 60 | 1019.1 |
| 20260830193023 | 68 | 53 | 0.0 | 3.5 | 0.00 | 0.17 | 0.02 | 62 | 1019.2 |
| 20260830191522 | 67 | 52 | 0.0 | 3.5 | 0.00 | 0.17 | 0.02 | 61 | 1019.4 |
| 20260830190011 | 66 | 61 | 0.9 | 7.8 | 0.00 | 0.17 | 0.02 | 61 | 1019.6 |
| 20260830184504 | 66 | 38 | 0.0 | 0.9 | 0.00 | 0.17 | 0.02 | 65 | 1019.6 |
| 20260830183046 | 66 | 26 | 0.0 | 7.0 | 0.00 | 0.17 | 0.02 | 64 | 1019.7 |
| 20260830181603 | 66 | 57 | 0.0 | 6.1 | 0.00 | 0.17 | 0.02 | 65 | 1019.7 |
| 20260830180028 | 66 | 79 | 0.9 | 7.0 | 0.00 | 0.17 | 0.02 | 61 | 1019.7 |
| 20260830174529 | 64 | 17 | 0.0 | 0.0 | 0.00 | 0.17 | 0.02 | 69 | 1019.6 |
| 20260830173023 | 62 | 250 | 0.0 | 0.0 | 0.00 | 0.17 | 0.02 | 73 | 1019.7 |
| 20260830171509 | 62 | 250 | 0.0 | 0.0 | 0.00 | 0.17 | 0.02 | 74 | 1019.8 |
| 20260830170110 | 61 | 250 | 0.0 | 0.0 | 0.00 | 0.17 | 0.02 | 76 | 1019.9 |
| 20260830164551 | 60 | 326 | 0.0 | 0.0 | 0.00 | 0.17 | 0.02 | 80 | 1019.9 |